Regional Weather Roundup
Issued by NWS

Home | Current Version | Previous Version | Text Only | Print | Product List | Glossary On
Versions: 1 2 3 4 5 6 7 8 9 10 11 12 13 14 15 16 17 18 19 20 21 22 23 24 25 26 27 28 29 30 31 32 33 34 35 36 37 38 39 40 41 42 43 44 45 46 47 48 49 50
000
ASUS44 KEWX 170002
RWRTX
SOUTH TEXAS REGIONAL WEATHER ROUNDUP
NATIONAL WEATHER SERVICE AUSTIN/SAN ANTONIO TX
700 PM CDT WED APR 16 2014

NOTE: "FAIR" INDICATED FEW OR NO CLOUDS BELOW 12,000 FEET WITH NO
SIGNIFICANT WEATHER AND/OR OBSTRUCTIONS TO VISIBILITY.

* - THESE STATIONS ARE NOT NWS OR FAA STATIONS...AND ARE NOT SUBJECT
    TO NWS AND FAA QUALITY CONTROL.

TXZ171-172-183>190-170100-
TEXAS HILL COUNTRY AND EDWARDS PLATEAU

CITY           SKY/WX    TMP DP  RH WIND       PRES   REMARKS
JUNCTION       PTSUNNY   69  33  26 S10       29.87F
6HR MIN TEMP:  67; 6HR MAX TEMP:  74;

*LLANO         SUNNY     73  37  27 S13G21    29.93R
BURNET         SUNNY     69  42  37 S9G23     29.93F
6HR MIN TEMP:  63; 6HR MAX TEMP:  72;

*HORSESHOE BAY SUNNY     71  39  31 S12G21    29.91F
*KERRVILLE     CLOUDY    69  39  33 SE17      29.92S
*FREDERICKSBRG SUNNY     66  37  34 S12G18    29.92S
*ROCKSPRINGS   PTSUNNY   66  36  32 SE15G24   29.91S
*BOERNE STAGE  PTSUNNY   68  37  32 S12G18    29.94S
*CASTROVILLE   PTSUNNY   72  42  33 SE13      29.92F
HONDO          CLOUDY    74  42  31 S14       29.92S
6HR MIN TEMP:  69; 6HR MAX TEMP:  78;

*UVALDE        CLOUDY    73  42  33 SE13G21   29.89F
DEL RIO        CLOUDY    73  39  29 SE17G26   29.83S
6HR MIN TEMP:  69; 6HR MAX TEMP:  77;

LAUGHLIN AFB   CLOUDY    72  40  31 S21       29.84S
6HR MIN TEMP:  69; 6HR MAX TEMP:  76;

CARRIZO SPRGS    N/A     73  43  33 SE10      29.87S
$$

TXZ173-191>194-202-209-217>225-228-170100-
CENTRAL AND SOUTH CENTRAL TEXAS

CITY           SKY/WX    TMP DP  RH WIND       PRES   REMARKS
GEORGETOWN     SUNNY     68  46  45 SE10G21   29.93F
AUSTIN/BERGSTM PTSUNNY   68  48  48 SE17G26   29.94F
6HR MIN TEMP:  66; 6HR MAX TEMP:  72;

AUSTIN/MABRY   PTSUNNY   68  46  45 S10G22    29.95S
6HR MIN TEMP:  65; 6HR MAX TEMP:  73;

*AUSTIN/EXEC   PTSUNNY   66  46  48 SE13G24   29.95F
*LAGO VISTA    PTSUNNY   69  44  40 SE10G16   29.94F
SAN MARCOS     PTSUNNY   68  45  42 SE17      29.96S
6HR MIN TEMP:  66; 6HR MAX TEMP:  73;

NEW BRAUNFELS  PTSUNNY   70  46  42 SE14      29.92F
6HR MIN TEMP:  67; 6HR MAX TEMP:  75;

RANDOLPH AFB   PTSUNNY   69  44  40 SE17      29.93S
6HR MIN TEMP:  67; 6HR MAX TEMP:  75;

PT SAN ANTONIO NOT AVBL
SAN ANTONIO    PTSUNNY   71  44  37 SE17      29.92F
6HR MIN TEMP:  67; 6HR MAX TEMP:  76;

STINSON FIELD  PTSUNNY   72  45  37 SE13      29.91S
6HR MIN TEMP:  69; 6HR MAX TEMP:  77;

*PLEASANTON    RAIN      72  44  36 SE14G20   29.92S
*LA GRANGE     SUNNY     68  50  53 SE7       29.97R
*GIDDINGS      MOSUNNY   66  47  50 S7        30.02S
*GONZALES      SUNNY     67  51  56 SE13G20   29.96S
6HR MIN TEMP:  67; 6HR MAX TEMP:  73;

$$

TXZ163>164-176>182-195>201-210>213-226-227-235-170100-
SOUTHEAST TEXAS

CITY           SKY/WX    TMP DP  RH WIND       PRES   REMARKS
COLLEGE STN    SUNNY     65  46  50 SE13      30.00S
6HR MIN TEMP:  62; 6HR MAX TEMP:  69; 6HR PCP: TRACE;

*BRYAN         MOSUNNY   65  47  51 SE12      29.99F
*CALDWELL      MOSUNNY   64  45  48 S13       30.02S
*CROCKETT      CLEAR     64  41  42 S7        30.05F
*BRENHAM       SUNNY     65  47  52 SE9       30.01S
HUNTSVILLE     CLEAR     64  42  44 S8        30.02S
6HR MIN TEMP:  60; 6HR MAX TEMP:  66;

CONROE         PTCLDY    63  46  54 SE10      30.04S
6HR MIN TEMP:  60; 6HR MAX TEMP:  66;

HOUSTON BUSH   PTCLDY    62  49  62 SE14      30.04S
6HR MIN TEMP:  61; 6HR MAX TEMP:  66;

HOUSTON HOBBY  MOCLDY    64  49  57 SE10      30.03F
6HR MIN TEMP:  61; 6HR MAX TEMP:  68;

*HOUSTON SW AP MOCLDY    64  49  58 E7        30.04S
PEARLAND       CLOUDY    64  49  57 SE10      30.05S
6HR MIN TEMP:  62; 6HR MAX TEMP:  67;

HOUSTON HOOKS  PTCLDY    64  49  57 SE10      30.03S
6HR MIN TEMP:  62; 6HR MAX TEMP:  67;

ELLINGTON FLD  NOT AVBL
SUGAR LAND     PTCLDY    64  50  60 SE14      30.03S
6HR MIN TEMP:  64; 6HR MAX TEMP:  69;

*HOUSTON EXEC  MOSUNNY   63  48  59 SE14      30.03S
*CLEVELAND MUN PTCLDY    64  49  56 CALM      30.05S
*WHARTON       MOSUNNY   65  50  58 SE14      30.02R
$$

TXZ214>216-236>238-170100-
THE UPPER TEXAS COAST

CITY           SKY/WX    TMP DP  RH WIND       PRES   REMARKS
*ORANGE        MOCLDY    63  48  58 E8        30.08S
PORT ARTHUR    MOCLDY    62  48  60 E12       30.06S
6HR MIN TEMP:  61; 6HR MAX TEMP:  66;

GALVESTON      PTCLDY    64  53  67 E12       30.04S
6HR MIN TEMP:  63; 6HR MAX TEMP:  66;

ANGLETON       CLOUDY    63  51  65 E8        30.03S
6HR MIN TEMP:  63; 6HR MAX TEMP:  69;

*BAY CITY      PTSUNNY   67  54  64 SE8G16    30.02R
PALACIOS       PTSUNNY   66  51  58 SE14      30.01R
6HR MIN TEMP:  66; 6HR MAX TEMP:  69; 6HR PCP: TRACE;

$$

TXZ229>234-239>247-170100-
TEXAS COASTAL BEND AND RIO GRANDE PLAINS

CITY           SKY/WX    TMP DP  RH WIND       PRES   REMARKS
VICTORIA       MOSUNNY   65  51  60 SE13      29.99S
6HR MIN TEMP:  65; 6HR MAX TEMP:  72;

*BEEVILLE      MOSUNNY   68  49  50 SE16      29.96R
ROCKPORT       PTSUNNY   66  53  63 SE14      29.98F
6HR MIN TEMP:  66; 6HR MAX TEMP:  73;

*PORT ARANSAS  MOSUNNY   66  53  63 SE12      29.98S
*PORT LAVACA   MOSUNNY   65  52  63 SE12G17   30.00R
*INGLESIDE     PTSUNNY   69  53  56 SE16G23   29.97F
CORPUS CHRISTI CLOUDY    68  52  56 SE16      29.97S
6HR MIN TEMP:  68; 6HR MAX TEMP:  75;

CORPUS NAS     CLOUDY    67  54  63 SE16      29.97S
6HR MIN TEMP:  67; 6HR MAX TEMP:  72;

*ROBSTOWN      PTSUNNY   70  52  53 SE17G23   29.97R
ALICE          CLOUDY    68  52  56 SE15G25   29.94S
6HR MIN TEMP:  68; 6HR MAX TEMP:  75;

KINGSVILLE NAS CLOUDY    68  55  63 SE18      29.95F
6HR MIN TEMP:  68; 6HR MAX TEMP:  75;

COTULLA        CLOUDY    75  43  31 SE12G20   29.89S
6HR MIN TEMP:  70; 6HR MAX TEMP:  76;

*FAITH RANCH   CLOUDY    73  43  33 S13G20    29.87S
LAREDO         CLOUDY    75  47  37 SE14      29.90F
6HR MIN TEMP:  71; 6HR MAX TEMP:  79;

$$

TXZ248>255-170100-
DEEP SOUTH TEXAS

CITY           SKY/WX    TMP DP  RH WIND       PRES   REMARKS
BROWNSVILLE    PTSUNNY   70  55  59 SE15      29.94S
6HR MIN TEMP:  70; 6HR MAX TEMP:  76;

PORT ISABEL    PTSUNNY   71  55  56 SE15      29.95R
6HR MIN TEMP:  71; 6HR MAX TEMP:  75;

*SOUTH PADRE   PTSUNNY   70  59  68 MISG      29.95S
HARLINGEN      PTSUNNY   71  54  54 SE15      29.93R
6HR MIN TEMP:  71; 6HR MAX TEMP:  77;

*HEBBRONVILLE  PTSUNNY   73  47  39 E14G20    29.91S
MCALLEN        PTSUNNY   72  53  51 SE17      29.92F
6HR MIN TEMP:  72; 6HR MAX TEMP:  78;

*WESLACO       CLOUDY    73  50  44 SE10G16   29.91F
FALFURRIAS     CLOUDY    74  55  52 E10       29.93S
EDINBURG       PTSUNNY   76  50  40 SE13      29.92S
*ZAPATA        PTSUNNY   74  47  37 SE10G20   29.88F
$$

TXZ213>215-236>238-242>244-246-247-251-254-255-170100-
CMAN STATIONS

STATION/POSITION TIME  TEMP    WIND        PRES    WAVE
                       AIR SEA DIR/SP/G            HT/PER
                 (UTC) (F)     (DEG/KT/KT) (MB)    (FT/S)
SABINE PASS      2300   60 66  120/ 11/ 15 1018.0
SEA RIM ST PARK  2300   61     110/  9/ 12 1018.6
NORTH JETTY/GLS  2300   63 68  140/ 14/ 16   N/A
EAGLE POINT      2300   62 58  140/ 13/ 15 1017.1
MORGANS POINT    2300   62 62  120/ 10/ 14 1018.8
MISSION/ARANSAS  2300   65     130/ 14     1016.0
PORT O`CONNOR    2300          130/ 12/ 14   N/A
PORT ARANSAS     2300   65 67  120/ 15/ 17 1015.4
MALAQUITE BEACH  2300   66 67  120/ 15/ 17 1014.2
BAFFIN BAY       2300   66 66  120/ 15/ 18 1014.6
PORT ISABEL      2300   69 66  140/  8/ 13 1014.3
$$

GMZ080-GMZ150>470-170100-
OFFSHORE BUOY REPORTS




USA.gov is the U.S. government's official web portal to all federal, state and local government web resources and services.